Wetterdaten: Donnerstag, 11.09.2014
Datum Zeit Temperatur Luftfeuchte Luftdruck Regen Wind Richtung Richtung Taupunkt Windchill Windben
11.09.2014 00:00 12,1 C 95 % 1017,2 hPa 0,0 l/m 0,0 km/h (0 Bft) N-NO 22 11,3 C 13,3 C 0,0 km/h (0 Bft)
11.09.2014 00:10 12,1 C 95 % 1017,2 hPa 0,0 l/m 0,0 km/h (0 Bft) N-NO 22 11,3 C 13,3 C 0,0 km/h (0 Bft)
11.09.2014 00:20 12,1 C 95 % 1016,9 hPa 0,0 l/m 0,0 km/h (0 Bft) N-NO 22 11,3 C 13,3 C 0,0 km/h (0 Bft)
11.09.2014 00:30 11,7 C 95 % 1016,9 hPa 0,0 l/m 0,0 km/h (0 Bft) N-NO 22 10,9 C 13,3 C 0,0 km/h (0 Bft)
11.09.2014 00:40 11,6 C 95 % 1017,1 hPa 0,0 l/m 0,0 km/h (0 Bft) N-NO 22 10,8 C 13,3 C 0,0 km/h (0 Bft)
11.09.2014 00:50 11,4 C 95 % 1017,1 hPa 0,0 l/m 0,0 km/h (0 Bft) N-NO 22 10,6 C 13,3 C 0,0 km/h (0 Bft)
11.09.2014 01:00 11,3 C 95 % 1017,2 hPa 0,0 l/m 0,0 km/h (0 Bft) N-NO 22 10,5 C 13,3 C 0,0 km/h (0 Bft)
11.09.2014 01:10 11,4 C 95 % 1017,2 hPa 0,0 l/m 0,0 km/h (0 Bft) N-NO 22 10,6 C 13,3 C 0,0 km/h (0 Bft)
11.09.2014 01:20 11,4 C 95 % 1016,9 hPa 0,0 l/m 0,0 km/h (0 Bft) N-NO 22 10,6 C 13,3 C 0,0 km/h (0 Bft)
11.09.2014 01:30 11,3 C 95 % 1016,9 hPa 0,0 l/m 0,0 km/h (0 Bft) N-NO 22 10,5 C 13,3 C 0,0 km/h (0 Bft)
11.09.2014 01:40 10,9 C 95 % 1016,9 hPa 0,0 l/m 0,0 km/h (0 Bft) N-NO 22 10,1 C 13,3 C 0,0 km/h (0 Bft)
11.09.2014 01:50 10,3 C 95 % 1016,9 hPa 0,0 l/m 0,0 km/h (0 Bft) N-NO 22 9,5 C 13,3 C 0,0 km/h (0 Bft)
11.09.2014 02:00 10,0 C 95 % 1016,9 hPa 0,0 l/m 0,0 km/h (0 Bft) N-NO 22 9,2 C 13,3 C 0,0 km/h (0 Bft)
11.09.2014 02:10 10,3 C 95 % 1016,9 hPa 0,0 l/m 0,0 km/h (0 Bft) N-NO 22 9,5 C 13,3 C 0,0 km/h (0 Bft)
11.09.2014 02:20 10,2 C 95 % 1016,8 hPa 0,0 l/m 0,0 km/h (0 Bft) N-NO 22 9,4 C 13,3 C 0,0 km/h (0 Bft)
11.09.2014 02:30 10,1 C 95 % 1016,8 hPa 0,0 l/m 0,0 km/h (0 Bft) N-NO 22 9,3 C 13,3 C 0,0 km/h (0 Bft)
11.09.2014 02:40 10,2 C 95 % 1017,1 hPa 0,0 l/m 0,0 km/h (0 Bft) N-NO 22 9,4 C 13,3 C 0,0 km/h (0 Bft)
11.09.2014 02:50 10,3 C 95 % 1017,1 hPa 0,0 l/m 0,0 km/h (0 Bft) N-NO 22 9,5 C 13,3 C 0,0 km/h (0 Bft)
11.09.2014 03:00 10,5 C 95 % 1016,8 hPa 0,0 l/m 0,0 km/h (0 Bft) N-NO 22 9,7 C 13,3 C 0,0 km/h (0 Bft)
11.09.2014 03:10 10,5 C 95 % 1016,8 hPa 0,0 l/m 0,0 km/h (0 Bft) N-NO 22 9,7 C 13,3 C 0,0 km/h (0 Bft)
11.09.2014 03:20 10,6 C 95 % 1016,7 hPa 0,0 l/m 0,0 km/h (0 Bft) N-NO 22 9,8 C 13,3 C 0,0 km/h (0 Bft)
11.09.2014 03:30 10,4 C 95 % 1016,7 hPa 0,0 l/m 0,0 km/h (0 Bft) N-NO 22 9,6 C 13,3 C 0,0 km/h (0 Bft)
11.09.2014 03:40 10,0 C 95 % 1016,6 hPa 0,0 l/m 0,0 km/h (0 Bft) N-NO 22 9,2 C 13,3 C 0,0 km/h (0 Bft)
11.09.2014 03:50 9,5 C 95 % 1016,6 hPa 0,0 l/m 0,0 km/h (0 Bft) N-NO 22 8,7 C 13,3 C 0,0 km/h (0 Bft)
11.09.2014 04:00 9,4 C 95 % 1016,4 hPa 0,0 l/m 0,0 km/h (0 Bft) N-NO 22 8,6 C 13,3 C 0,0 km/h (0 Bft)
11.09.2014 04:10 8,5 C 95 % 1016,4 hPa 0,0 l/m 0,0 km/h (0 Bft) N-NO 22 7,7 C 13,3 C 0,0 km/h (0 Bft)
11.09.2014 04:20 8,9 C 95 % 1015,9 hPa 0,0 l/m 0,0 km/h (0 Bft) N-NO 22 8,1 C 13,3 C 0,0 km/h (0 Bft)
11.09.2014 04:30 8,8 C 95 % 1015,9 hPa 0,0 l/m 0,0 km/h (0 Bft) N-NO 22 8,0 C 13,3 C 0,0 km/h (0 Bft)
11.09.2014 04:40 8,3 C 95 % 1016,0 hPa 0,0 l/m 0,0 km/h (0 Bft) N-NO 22 7,5 C 13,3 C 0,0 km/h (0 Bft)
11.09.2014 04:50 8,4 C 95 % 1016,0 hPa 0,0 l/m 0,0 km/h (0 Bft) N-NO 22 7,6 C 13,3 C 0,0 km/h (0 Bft)
11.09.2014 05:00 8,7 C 95 % 1016,1 hPa 0,0 l/m 0,0 km/h (0 Bft) N-NO 22 7,9 C 13,3 C 0,0 km/h (0 Bft)
11.09.2014 05:10 9,2 C 95 % 1016,1 hPa 0,0 l/m 0,0 km/h (0 Bft) N-NO 22 8,4 C 13,3 C 0,0 km/h (0 Bft)
11.09.2014 05:20 9,1 C 95 % 1016,2 hPa 0,0 l/m 0,0 km/h (0 Bft) N-NO 22 8,3 C 13,3 C 0,0 km/h (0 Bft)
11.09.2014 05:30 9,2 C 95 % 1016,2 hPa 0,0 l/m 0,0 km/h (0 Bft) N-NO 22 8,4 C 13,3 C 0,0 km/h (0 Bft)
11.09.2014 05:40 9,1 C 95 % 1016,0 hPa 0,0 l/m 0,0 km/h (0 Bft) N-NO 22 8,3 C 13,3 C 0,0 km/h (0 Bft)
11.09.2014 05:50 9,8 C 95 % 1016,0 hPa 0,0 l/m 0,0 km/h (0 Bft) N-NO 22 9,0 C 13,3 C 0,0 km/h (0 Bft)
11.09.2014 06:00 9,9 C 96 % 1015,9 hPa 0,0 l/m 0,0 km/h (0 Bft) N-NO 22 9,3 C 13,3 C 0,0 km/h (0 Bft)
11.09.2014 06:10 9,8 C 96 % 1015,9 hPa 0,0 l/m 0,0 km/h (0 Bft) N-NO 22 9,2 C 13,3 C 0,0 km/h (0 Bft)
11.09.2014 06:20 9,9 C 96 % 1015,8 hPa 0,0 l/m 0,0 km/h (0 Bft) N-NO 22 9,3 C 13,3 C 0,0 km/h (0 Bft)
11.09.2014 06:30 9,9 C 96 % 1015,8 hPa 0,0 l/m 0,0 km/h (0 Bft) N-NO 22 9,3 C 13,3 C 0,0 km/h (0 Bft)
11.09.2014 06:40 9,9 C 96 % 1015,8 hPa 0,0 l/m 0,0 km/h (0 Bft) N-NO 22 9,3 C 13,3 C 0,0 km/h (0 Bft)
11.09.2014 06:50 9,9 C 96 % 1015,9 hPa 0,0 l/m 0,0 km/h (0 Bft) N-NO 22 9,3 C 13,3 C 0,0 km/h (0 Bft)
11.09.2014 06:58 10,0 C 95 % 1015,9 hPa 0,0 l/m 0,0 km/h (0 Bft) N-NO 22 9,2 C 13,3 C 0,0 km/h (0 Bft)
11.09.2014 07:00 10,1 C 96 % 1016,0 hPa 0,0 l/m 0,0 km/h (0 Bft) N-NO 22 9,5 C 13,3 C 0,0 km/h (0 Bft)
11.09.2014 07:10 10,1 C 96 % 1016,0 hPa 0,0 l/m 0,0 km/h (0 Bft) N-NO 22 9,5 C 13,3 C 0,0 km/h (0 Bft)
11.09.2014 07:20 10,2 C 96 % 1015,9 hPa 0,0 l/m 0,0 km/h (0 Bft) N-NO 22 9,6 C 13,3 C 0,0 km/h (0 Bft)
11.09.2014 07:30 10,2 C 96 % 1015,9 hPa 0,0 l/m 0,0 km/h (0 Bft) N-NO 22 9,6 C 13,3 C 0,0 km/h (0 Bft)
11.09.2014 07:40 10,3 C 96 % 1015,9 hPa 0,0 l/m 0,0 km/h (0 Bft) N-NO 22 9,7 C 13,3 C 0,0 km/h (0 Bft)
11.09.2014 07:50 10,4 C 96 % 1015,9 hPa 0,0 l/m 0,0 km/h (0 Bft) N-NO 22 9,8 C 13,3 C 0,0 km/h (0 Bft)
11.09.2014 08:00 10,4 C 96 % 1015,7 hPa 0,0 l/m 0,0 km/h (0 Bft) N-NO 22 9,8 C 13,3 C 0,0 km/h (0 Bft)
11.09.2014 08:10 10,6 C 96 % 1015,7 hPa 0,0 l/m 0,0 km/h (0 Bft) N-NO 22 10,0 C 13,3 C 0,0 km/h (0 Bft)
11.09.2014 08:20 10,8 C 96 % 1015,6 hPa 0,0 l/m 0,0 km/h (0 Bft) N-NO 22 10,2 C 13,3 C 0,0 km/h (0 Bft)
11.09.2014 08:30 10,8 C 96 % 1015,6 hPa 0,0 l/m 0,0 km/h (0 Bft) N-NO 22 10,2 C 13,3 C 0,0 km/h (0 Bft)
11.09.2014 08:40 10,9 C 96 % 1015,6 hPa 0,0 l/m 0,0 km/h (0 Bft) N-NO 22 10,3 C 13,3 C 0,0 km/h (0 Bft)
11.09.2014 08:50 10,9 C 96 % 1015,6 hPa 0,0 l/m 0,0 km/h (0 Bft) N-NO 22 10,3 C 13,3 C 0,0 km/h (0 Bft)
11.09.2014 09:00 10,9 C 96 % 1015,6 hPa 0,0 l/m 0,0 km/h (0 Bft) N-NO 22 10,3 C 13,3 C 0,0 km/h (0 Bft)
11.09.2014 09:10 10,9 C 96 % 1015,7 hPa 0,0 l/m 0,0 km/h (0 Bft) N-NO 22 10,3 C 13,3 C 0,0 km/h (0 Bft)
11.09.2014 09:20 10,9 C 96 % 1015,7 hPa 0,0 l/m 0,0 km/h (0 Bft) N-NO 22 10,3 C 13,3 C 0,0 km/h (0 Bft)
11.09.2014 09:30 10,9 C 96 % 1015,7 hPa 0,0 l/m 0,0 km/h (0 Bft) N-NO 22 10,3 C 13,3 C 0,0 km/h (0 Bft)
11.09.2014 09:40 10,9 C 96 % 1015,7 hPa 0,0 l/m 0,0 km/h (0 Bft) N-NO 22 10,3 C 13,3 C 0,0 km/h (0 Bft)
11.09.2014 09:50 11,2 C 95 % 1015,8 hPa 0,0 l/m 0,0 km/h (0 Bft) N-NO 22 10,4 C 13,3 C 0,0 km/h (0 Bft)
11.09.2014 09:58 11,2 C 95 % 1015,8 hPa 0,0 l/m 0,0 km/h (0 Bft) N-NO 22 10,4 C 13,3 C 0,0 km/h (0 Bft)
11.09.2014 10:00 11,3 C 95 % 1016,1 hPa 0,0 l/m 0,0 km/h (0 Bft) N-NO 22 10,5 C 13,3 C 0,0 km/h (0 Bft)
11.09.2014 10:10 11,5 C 95 % 1016,1 hPa 0,0 l/m 0,0 km/h (0 Bft) N-NO 22 10,7 C 13,3 C 0,0 km/h (0 Bft)
11.09.2014 10:20 11,7 C 95 % 1016,2 hPa 0,0 l/m 0,0 km/h (0 Bft) N-NO 22 10,9 C 13,3 C 0,0 km/h (0 Bft)
11.09.2014 10:30 12,1 C 95 % 1016,2 hPa 0,0 l/m 0,0 km/h (0 Bft) N-NO 22 11,3 C 13,3 C 0,0 km/h (0 Bft)
11.09.2014 10:40 12,0 C 95 % 1016,1 hPa 0,0 l/m 0,0 km/h (0 Bft) N-NO 22 11,2 C 13,3 C 0,0 km/h (0 Bft)
11.09.2014 10:50 12,2 C 95 % 1016,1 hPa 0,0 l/m 0,0 km/h (0 Bft) N-NO 22 11,4 C 13,3 C 0,0 km/h (0 Bft)
11.09.2014 11:00 12,0 C 95 % 1016,2 hPa 0,0 l/m 0,0 km/h (0 Bft) N-NO 22 11,2 C 13,3 C 0,0 km/h (0 Bft)
11.09.2014 11:10 12,2 C 95 % 1016,2 hPa 0,0 l/m 0,0 km/h (0 Bft) N-NO 22 11,4 C 13,3 C 0,0 km/h (0 Bft)
11.09.2014 11:20 13,0 C 93 % 1016,2 hPa 0,0 l/m 0,0 km/h (0 Bft) N-NO 22 11,9 C 13,3 C 0,0 km/h (0 Bft)
11.09.2014 11:30 12,9 C 94 % 1016,2 hPa 0,0 l/m 0,0 km/h (0 Bft) N-NO 22 12,0 C 13,3 C 0,0 km/h (0 Bft)
11.09.2014 11:40 12,5 C 93 % 1016,4 hPa 0,0 l/m 0,0 km/h (0 Bft) N-NO 22 11,4 C 13,3 C 0,0 km/h (0 Bft)
11.09.2014 11:50 12,6 C 93 % 1016,4 hPa 0,0 l/m 0,0 km/h (0 Bft) N-NO 22 11,5 C 13,3 C 0,0 km/h (0 Bft)
11.09.2014 12:00 12,6 C 93 % 1016,4 hPa 0,0 l/m 0,0 km/h (0 Bft) N-NO 22 11,5 C 13,3 C 0,0 km/h (0 Bft)
11.09.2014 12:10 13,2 C 91 % 1016,4 hPa 0,0 l/m 0,0 km/h (0 Bft) N-NO 22 11,8 C 13,3 C 0,0 km/h (0 Bft)
11.09.2014 12:20 13,4 C 89 % 1016,4 hPa 0,0 l/m 0,0 km/h (0 Bft) N-NO 22 11,6 C 13,3 C 0,0 km/h (0 Bft)
11.09.2014 12:30 12,8 C 89 % 1016,6 hPa 0,0 l/m 0,0 km/h (0 Bft) N-NO 22 11,0 C 13,3 C 0,0 km/h (0 Bft)
11.09.2014 12:40 13,0 C 88 % 1016,6 hPa 0,0 l/m 0,0 km/h (0 Bft) N-NO 22 11,1 C 13,3 C 0,0 km/h (0 Bft)
11.09.2014 12:50 13,1 C 85 % 1016,5 hPa 0,0 l/m 0,0 km/h (0 Bft) N-NO 22 10,6 C 13,3 C 0,0 km/h (0 Bft)
11.09.2014 12:58 13,9 C 86 % 1016,5 hPa 0,0 l/m 0,0 km/h (0 Bft) N-NO 22 11,6 C 13,3 C 0,0 km/h (0 Bft)
11.09.2014 13:00 13,9 C 84 % 1016,6 hPa 0,0 l/m 0,0 km/h (0 Bft) N-NO 22 11,2 C 13,3 C 0,0 km/h (0 Bft)
11.09.2014 13:10 13,9 C 84 % 1016,6 hPa 0,0 l/m 0,0 km/h (0 Bft) N-NO 22 11,2 C 13,3 C 0,0 km/h (0 Bft)
11.09.2014 13:20 14,6 C 79 % 1016,5 hPa 0,0 l/m 0,0 km/h (0 Bft) N-NO 22 11,0 C 13,3 C 0,0 km/h (0 Bft)
11.09.2014 13:30 14,7 C 80 % 1016,5 hPa 0,0 l/m 0,0 km/h (0 Bft) N-NO 22 11,3 C 13,3 C 0,0 km/h (0 Bft)
11.09.2014 13:40 14,0 C 79 % 1016,8 hPa 0,0 l/m 0,0 km/h (0 Bft) N-NO 22 10,4 C 13,3 C 0,0 km/h (0 Bft)
11.09.2014 13:50 13,5 C 78 % 1016,8 hPa 0,0 l/m 0,0 km/h (0 Bft) N-NO 22 9,7 C 13,3 C 0,0 km/h (0 Bft)
11.09.2014 14:00 13,8 C 76 % 1016,7 hPa 0,0 l/m 0,0 km/h (0 Bft) N-NO 22 9,6 C 13,3 C 0,0 km/h (0 Bft)
11.09.2014 14:10 14,4 C 76 % 1016,7 hPa 0,0 l/m 0,0 km/h (0 Bft) N-NO 22 10,2 C 13,3 C 0,0 km/h (0 Bft)
11.09.2014 14:20 13,7 C 71 % 1016,8 hPa 0,0 l/m 0,0 km/h (0 Bft) N-NO 22 8,5 C 13,3 C 0,0 km/h (0 Bft)
11.09.2014 14:30 13,7 C 75 % 1016,8 hPa 0,0 l/m 0,0 km/h (0 Bft) N-NO 22 9,3 C 13,3 C 0,0 km/h (0 Bft)
11.09.2014 14:40 13,8 C 75 % 1016,9 hPa 0,0 l/m 0,0 km/h (0 Bft) N-NO 22 9,4 C 13,3 C 0,0 km/h (0 Bft)
11.09.2014 14:50 14,1 C 75 % 1016,9 hPa 0,0 l/m 0,0 km/h (0 Bft) N-NO 22 9,7 C 13,3 C 0,0 km/h (0 Bft)
11.09.2014 15:00 14,1 C 75 % 1016,9 hPa 0,0 l/m 0,0 km/h (0 Bft) N-NO 22 9,7 C 13,3 C 0,0 km/h (0 Bft)
11.09.2014 15:10 14,7 C 74 % 1017,0 hPa 0,0 l/m 0,0 km/h (0 Bft) N-NO 22 10,1 C 13,3 C 0,0 km/h (0 Bft)
11.09.2014 15:20 15,3 C 69 % 1017,0 hPa 0,0 l/m 0,0 km/h (0 Bft) N-NO 22 9,6 C 13,3 C 0,0 km/h (0 Bft)
11.09.2014 15:30 15,1 C 71 % 1016,6 hPa 0,0 l/m 0,0 km/h (0 Bft) N-NO 22 9,9 C 13,3 C 0,0 km/h (0 Bft)
11.09.2014 15:40 14,2 C 71 % 1016,6 hPa 0,0 l/m 0,0 km/h (0 Bft) N-NO 22 9,0 C 13,3 C 0,0 km/h (0 Bft)
11.09.2014 15:50 13,0 C 71 % 1016,8 hPa 0,0 l/m 0,0 km/h (0 Bft) N-NO 22 7,9 C 13,3 C 0,0 km/h (0 Bft)
11.09.2014 15:58 12,4 C 73 % 1016,8 hPa 0,0 l/m 0,0 km/h (0 Bft) N-NO 22 7,7 C 13,3 C 0,0 km/h (0 Bft)
11.09.2014 16:00 12,6 C 75 % 1016,9 hPa 0,0 l/m 0,0 km/h (0 Bft) N-NO 22 8,3 C 13,3 C 0,0 km/h (0 Bft)
11.09.2014 16:10 12,5 C 71 % 1016,9 hPa 0,0 l/m 0,0 km/h (0 Bft) N-NO 22 7,4 C 13,3 C 0,0 km/h (0 Bft)
11.09.2014 16:20 12,1 C 73 % 1016,9 hPa 0,0 l/m 0,0 km/h (0 Bft) N-NO 22 7,4 C 13,3 C 0,0 km/h (0 Bft)
11.09.2014 16:30 10,7 C 86 % 1016,9 hPa 0,0 l/m 0,0 km/h (0 Bft) N-NO 22 8,5 C 13,3 C 0,0 km/h (0 Bft)
11.09.2014 16:40 10,7 C 89 % 1016,7 hPa 0,0 l/m 0,0 km/h (0 Bft) N-NO 22 9,0 C 13,3 C 0,0 km/h (0 Bft)
11.09.2014 16:50 11,3 C 90 % 1016,7 hPa 0,0 l/m 0,0 km/h (0 Bft) N-NO 22 9,7 C 13,3 C 0,0 km/h (0 Bft)
11.09.2014 17:00 11,6 C 91 % 1016,5 hPa 0,0 l/m 0,0 km/h (0 Bft) N-NO 22 10,2 C 13,3 C 0,0 km/h (0 Bft)
11.09.2014 17:10 11,9 C 92 % 1016,5 hPa 0,0 l/m 0,0 km/h (0 Bft) N-NO 22 10,6 C 13,3 C 0,0 km/h (0 Bft)
11.09.2014 17:20 11,8 C 92 % 1016,8 hPa 0,0 l/m 0,0 km/h (0 Bft) N-NO 22 10,5 C 13,3 C 0,0 km/h (0 Bft)
11.09.2014 17:30 11,8 C 92 % 1016,8 hPa 0,0 l/m 0,0 km/h (0 Bft) N-NO 22 10,5 C 13,3 C 0,0 km/h (0 Bft)
11.09.2014 17:40 11,8 C 92 % 1016,9 hPa 0,0 l/m 0,0 km/h (0 Bft) N-NO 22 10,5 C 13,3 C 0,0 km/h (0 Bft)
11.09.2014 17:50 11,5 C 92 % 1016,9 hPa 0,0 l/m 0,0 km/h (0 Bft) N-NO 22 10,2 C 13,3 C 0,0 km/h (0 Bft)
11.09.2014 18:00 11,5 C 92 % 1016,9 hPa 0,0 l/m 0,0 km/h (0 Bft) N-NO 22 10,2 C 13,3 C 0,0 km/h (0 Bft)
11.09.2014 18:10 11,6 C 92 % 1016,9 hPa 0,0 l/m 0,0 km/h (0 Bft) N-NO 22 10,3 C 13,3 C 0,0 km/h (0 Bft)
11.09.2014 18:20 11,6 C 92 % 1016,9 hPa 0,0 l/m 0,0 km/h (0 Bft) N-NO 22 10,3 C 13,3 C 0,0 km/h (0 Bft)
11.09.2014 18:30 11,5 C 92 % 1017,1 hPa 0,0 l/m 0,0 km/h (0 Bft) N-NO 22 10,2 C 13,3 C 0,0 km/h (0 Bft)
11.09.2014 18:40 11,1 C 91 % 1017,1 hPa 0,0 l/m 0,0 km/h (0 Bft) N-NO 22 9,7 C 13,3 C 0,0 km/h (0 Bft)
11.09.2014 18:50 10,9 C 92 % 1017,1 hPa 0,0 l/m 0,0 km/h (0 Bft) N-NO 22 9,7 C 13,3 C 0,0 km/h (0 Bft)
11.09.2014 18:58 10,9 C 92 % 1017,1 hPa 0,0 l/m 0,0 km/h (0 Bft) N-NO 22 9,7 C 13,3 C 0,0 km/h (0 Bft)
11.09.2014 19:00 10,7 C 92 % 1017,1 hPa 0,0 l/m 0,0 km/h (0 Bft) N-NO 22 9,5 C 13,3 C 0,0 km/h (0 Bft)
11.09.2014 19:10 10,7 C 93 % 1017,1 hPa 0,0 l/m 0,0 km/h (0 Bft) N-NO 22 9,6 C 13,3 C 0,0 km/h (0 Bft)
11.09.2014 19:20 10,5 C 93 % 1017,1 hPa 0,0 l/m 0,0 km/h (0 Bft) N-NO 22 9,4 C 13,3 C 0,0 km/h (0 Bft)
11.09.2014 19:30 10,4 C 93 % 1017,1 hPa 0,0 l/m 0,0 km/h (0 Bft) N-NO 22 9,3 C 13,3 C 0,0 km/h (0 Bft)
11.09.2014 19:40 10,3 C 93 % 1016,9 hPa 0,0 l/m 0,0 km/h (0 Bft) N-NO 22 9,2 C 13,3 C 0,0 km/h (0 Bft)
11.09.2014 19:50 10,4 C 93 % 1016,9 hPa 0,0 l/m 0,0 km/h (0 Bft) N-NO 22 9,3 C 13,3 C 0,0 km/h (0 Bft)
11.09.2014 20:00 10,5 C 93 % 1017,0 hPa 0,0 l/m 0,0 km/h (0 Bft) N-NO 22 9,4 C 13,3 C 0,0 km/h (0 Bft)
11.09.2014 20:10 10,4 C 93 % 1017,0 hPa 0,0 l/m 0,0 km/h (0 Bft) N-NO 22 9,3 C 13,3 C 0,0 km/h (0 Bft)
11.09.2014 20:20 10,3 C 94 % 1017,3 hPa 0,0 l/m 0,0 km/h (0 Bft) N-NO 22 9,4 C 13,3 C 0,0 km/h (0 Bft)
11.09.2014 20:30 10,2 C 94 % 1017,3 hPa 0,0 l/m 0,0 km/h (0 Bft) N-NO 22 9,3 C 13,3 C 0,0 km/h (0 Bft)
11.09.2014 20:40 10,0 C 94 % 1017,5 hPa 0,0 l/m 0,0 km/h (0 Bft) N-NO 22 9,1 C 13,3 C 0,0 km/h (0 Bft)
11.09.2014 20:50 9,8 C 94 % 1017,5 hPa 0,0 l/m 0,0 km/h (0 Bft) N-NO 22 8,9 C 13,3 C 0,0 km/h (0 Bft)
11.09.2014 21:00 9,8 C 94 % 1017,5 hPa 0,0 l/m 0,0 km/h (0 Bft) N-NO 22 8,9 C 13,3 C 0,0 km/h (0 Bft)
11.09.2014 21:10 9,7 C 93 % 1017,6 hPa 0,0 l/m 0,0 km/h (0 Bft) N-NO 22 8,6 C 13,3 C 0,0 km/h (0 Bft)
11.09.2014 21:20 9,7 C 93 % 1017,6 hPa 0,0 l/m 0,0 km/h (0 Bft) N-NO 22 8,6 C 13,3 C 0,0 km/h (0 Bft)
11.09.2014 21:30 9,6 C 93 % 1017,3 hPa 0,0 l/m 0,0 km/h (0 Bft) N-NO 22 8,5 C 13,3 C 0,0 km/h (0 Bft)
11.09.2014 21:40 9,6 C 94 % 1017,3 hPa 0,0 l/m 0,0 km/h (0 Bft) N-NO 22 8,7 C 13,3 C 0,0 km/h (0 Bft)
11.09.2014 21:50 9,7 C 94 % 1017,4 hPa 0,0 l/m 0,0 km/h (0 Bft) N-NO 22 8,8 C 13,3 C 0,0 km/h (0 Bft)
11.09.2014 21:58 9,7 C 94 % 1017,4 hPa 0,0 l/m 0,0 km/h (0 Bft) N-NO 22 8,8 C 13,3 C 0,0 km/h (0 Bft)
11.09.2014 22:00 9,7 C 94 % 1017,7 hPa 0,0 l/m 0,0 km/h (0 Bft) N-NO 22 8,8 C 13,3 C 0,0 km/h (0 Bft)
11.09.2014 22:10 9,9 C 94 % 1017,7 hPa 0,0 l/m 0,0 km/h (0 Bft) N-NO 22 9,0 C 13,3 C 0,0 km/h (0 Bft)
11.09.2014 22:20 9,2 C 94 % 1018,1 hPa 0,0 l/m 0,0 km/h (0 Bft) N-NO 22 8,3 C 13,3 C 0,0 km/h (0 Bft)
11.09.2014 22:30 8,5 C 93 % 1018,1 hPa 0,0 l/m 0,0 km/h (0 Bft) N-NO 22 7,4 C 13,3 C 0,0 km/h (0 Bft)
11.09.2014 22:40 8,1 C 93 % 1018,2 hPa 0,0 l/m 0,0 km/h (0 Bft) N-NO 22 7,0 C 13,3 C 0,0 km/h (0 Bft)
11.09.2014 22:50 7,9 C 93 % 1018,2 hPa 0,0 l/m 0,0 km/h (0 Bft) N-NO 22 6,8 C 13,3 C 0,0 km/h (0 Bft)
11.09.2014 23:00 7,8 C 94 % 1018,1 hPa 0,0 l/m 0,0 km/h (0 Bft) N-NO 22 6,9 C 13,3 C 0,0 km/h (0 Bft)
11.09.2014 23:10 7,7 C 94 % 1018,1 hPa 0,0 l/m 0,0 km/h (0 Bft) N-NO 22 6,8 C 13,3 C 0,0 km/h (0 Bft)
11.09.2014 23:20 7,6 C 94 % 1018,3 hPa 0,0 l/m 0,0 km/h (0 Bft) N-NO 22 6,7 C 13,3 C 0,0 km/h (0 Bft)
11.09.2014 23:30 7,5 C 94 % 1018,3 hPa 0,0 l/m 0,0 km/h (0 Bft) N-NO 22 6,6 C 13,3 C 0,0 km/h (0 Bft)
11.09.2014 23:40 7,6 C 94 % 1018,1 hPa 0,0 l/m 0,0 km/h (0 Bft) N-NO 22 6,7 C 13,3 C 0,0 km/h (0 Bft)
11.09.2014 23:50 7,6 C 94 % 1018,1 hPa 0,0 l/m 0,0 km/h (0 Bft) N-NO 22 6,7 C 13,3 C 0,0 km/h (0 Bft)
_ Min-Zeit 23:30 15:20 09:00 - 23:50 - - 23:30 23:50 23:50
Minimum _ 7,5 C 69 % 1015,6 hPa - 0,0 km/h (0 Bft) - - 6,6 C 13,3 C 0,0 km/h (0 Bft)
_ Max-Zeit 15:20 09:40 23:30 23:50 23:50 - - 11:30 23:50 23:50
Maximum _ 15,3 C 96 % 1018,3 hPa 0,0 l/m 0,0 km/h
N-NO (0 Bft)
- - 12,0 C 13,3 C 0,0 km/h
N-NO (0 Bft)
Durchschnitt _ 11,0 C 91 % 1016,7 hPa #0,0 l/m 0,0 km/h (0 Bft) - - - 9,6 C 13,3 C 0,0 km/h (0 Bft)